Denver Centennial, CO

9:52 PM MST on December 14, 2017 (GMT -0700)
Centennial

Weather History for KAPA - August, 2013

Change the Weather History Date:

Sunday, August 25, 2013

  Actual Average Record
Temperature  
Mean Temperature 74 °F -  
Max Temperature 88 °F 81 °F 93 °F (2011)
Min Temperature 60 °F 54 °F 45 °F (2016)
Cooling Degree Days 9    
Month to date cooling degree days 177  
Growing Degree Days 25 (Base 50)    
Moisture  
Dew Point 53 °F    
Average Humidity 52    
Maximum Humidity 78    
Minimum Humidity 26    
Precipitation  
Precipitation T in - - ()
Month to date precipitation 3.24  
Year to date precipitation 9.81  
Sea Level Pressure  
Sea Level Pressure 30.00 in    
Wind  
Wind Speed 7 mph (SSW)    
Max Wind Speed 17 mph    
Max Gust Speed 22 mph    
Visibility 10 miles    
Events Rain , Thunderstorm    
Averages and records for this station are not official NWS values.
T = Trace of Precipitation, MM = Missing Value Source: NWS Daily Summary

Daily Weather History Graph

Daily Weather History Graph

Search for Another Location

Airport or City:

Trip Planner

Search our weather history database for the weather conditions in past years. The results will help you decide how hot, cold, wet, or windy it might be!

Date:

Astronomy

Aug. 25, 2013 Rise Set
Actual Time 6:21 AM MDT 7:40 PM MDT
Civil Twilight 5:53 AM MDT 8:08 PM MDT
Nautical Twilight 5:19 AM MDT 8:42 PM MDT
Astronomical Twilight 4:44 AM MDT 9:17 PM MDT
Moon 10:14 PM MDT (8/25) 11:24 AM MDT (8/25)
Length of Visible Light 14h 15m
Length of Day
13h 19m
Waning Gibbous, 75% of the Moon is Illuminated
Aug 25
Waning Gibbous
Aug 28
Last Quarter
Sep 5
New
Sep 12
First Quarter
Sep 19
Full

Hourly Weather History & Observations

Time (MDT) Temp. Heat Index Dew Point Humidity Pressure Visibility Wind Dir Wind Speed Gust Speed Precip Events Conditions
12:53 AM 63.0 °F - 57.0 °F 81% 29.98 in 10.0 mi South 5.8 mph - 0.12 in Thunderstorm Thunderstorm
1:12 AM 62.6 °F - 57.2 °F 82% 30.20 in 10.0 mi South 6.9 mph - N/A   Mostly Cloudy
1:53 AM 63.0 °F - 55.9 °F 78% 29.98 in 10.0 mi SSW 8.1 mph - N/A   Scattered Clouds
2:53 AM 64.0 °F - 55.9 °F 75% 29.98 in 10.0 mi SW 10.4 mph - N/A   Mostly Cloudy
3:53 AM 63.0 °F - 55.0 °F 75% 29.99 in 10.0 mi South 3.5 mph - N/A   Mostly Cloudy
4:53 AM 63.0 °F - 54.0 °F 72% 30.00 in 10.0 mi South 4.6 mph - N/A   Mostly Cloudy
5:53 AM 63.0 °F - 52.0 °F 67% 30.02 in 10.0 mi SSE 6.9 mph - N/A   Scattered Clouds
6:53 AM 63.0 °F - 52.0 °F 67% 30.03 in 10.0 mi South 5.8 mph - N/A   Scattered Clouds
7:53 AM 70.0 °F - 52.0 °F 53% 30.03 in 10.0 mi SSW 12.7 mph - N/A   Scattered Clouds
8:53 AM 73.9 °F - 51.1 °F 45% 30.02 in 10.0 mi SW 11.5 mph - N/A   Mostly Cloudy
9:53 AM 75.9 °F - 51.1 °F 42% 30.03 in 10.0 mi SW 10.4 mph - N/A   Scattered Clouds
10:53 AM 79.0 °F - 48.9 °F 35% 30.02 in 10.0 mi SSW 9.2 mph - N/A   Scattered Clouds
11:53 AM 82.0 °F - 46.9 °F 29% 30.01 in 10.0 mi Variable 3.5 mph - N/A   Scattered Clouds
12:53 PM 82.9 °F - 48.9 °F 31% 30.00 in 10.0 mi Variable 4.6 mph - N/A   Mostly Cloudy
1:53 PM 84.9 °F - 48.0 °F 28% 29.98 in 10.0 mi Variable 4.6 mph - N/A   Mostly Cloudy
2:53 PM 86.0 °F - 48.9 °F 28% 29.96 in 10.0 mi North 6.9 mph - N/A   Mostly Cloudy
3:53 PM 88.0 °F - 48.0 °F 25% 29.93 in 10.0 mi North 4.6 mph - N/A   Mostly Cloudy
4:53 PM 82.9 °F - 51.1 °F 33% 29.95 in 10.0 mi South 10.4 mph - N/A   Mostly Cloudy
5:53 PM 82.0 °F 81.2 °F 53.1 °F 37% 29.96 in 10.0 mi SW 5.8 mph - N/A   Overcast
6:53 PM 75.0 °F - 55.9 °F 51% 30.00 in 10.0 mi NW 9.2 mph - 0.00 in Rain Light Rain
7:53 PM 73.9 °F - 55.9 °F 53% 30.00 in 10.0 mi WNW 5.8 mph - 0.00 in Rain Light Rain
8:53 PM 73.0 °F - 55.9 °F 55% 30.00 in 10.0 mi West 5.8 mph - 0.00 in   Mostly Cloudy
9:53 PM 69.1 °F - 57.0 °F 65% 30.01 in 10.0 mi SSW 3.5 mph - N/A   Mostly Cloudy
10:53 PM 66.0 °F - 55.9 °F 70% 30.01 in 10.0 mi South 3.5 mph - N/A   Mostly Cloudy
11:53 PM 64.9 °F - 57.0 °F 75% 30.01 in 10.0 mi Calm Calm - N/A   Scattered Clouds